Weather reports worldwide

Advertisment
Berlin-Schönefeld, Germany (10385): temperature & dewpoint: 09.09.2019 10:00:00 - 15.09.2019 10:00:00 (CEST)Berlin-Schönefeld, Germany (10385): temperature 5cm & temperature -5cm: 09.09.2019 10:00:00 - 15.09.2019 10:00:00 (CEST)Berlin-Schönefeld, Germany (10385): temperature -20cm & temperature -100cm: 09.09.2019 10:00:00 - 15.09.2019 10:00:00 (CEST)Berlin-Schönefeld, Germany (10385): wind speed & gusts: 09.09.2019 10:00:00 - 15.09.2019 10:00:00 (CEST)Berlin-Schönefeld, Germany (10385): wind direction: 09.09.2019 10:00:00 - 15.09.2019 10:00:00 (CEST)Berlin-Schönefeld, Germany (10385): reduced air pressure: 09.09.2019 10:00:00 - 15.09.2019 10:00:00 (CEST)Berlin-Schönefeld, Germany (10385): visibility: 09.09.2019 10:00:00 - 15.09.2019 10:00:00 (CEST)Berlin-Schönefeld, Germany (10385): sunshine duration: 09.09.2019 10:00:00 - 15.09.2019 10:00:00 (CEST)Berlin-Schönefeld, Germany (10385): precipitation: 09.09.2019 10:00:00 - 15.09.2019 10:00:00 (CEST)
Date & Time tt [°C] td [°C] tt 5cm [°C] tt -5cm [°C] tt -20cm [°C] tt -100cm [°C] ff [km/h] ff [kn] fx [km/h] fx [kn] dd ppp [hPa] vv [km] sd [min] rr [mm]
15.09.2019 10:00:00 16,4 8,6 19,4 16,0 14,1 17,4 22 12 29 15 WSW 1021,5 10 60 0,0
15.09.2019 09:00:00 12,5 7,3 14,8 12,7 14,0 17,4 12 6 16 9 S 1022,0 45 60 0,0
15.09.2019 08:00:00 10,0 6,1 9,0 10,3 14,2 17,4 13 7 17 9 SSW 1022,7 45 38 0,0
15.09.2019 07:00:00 8,7 5,6 6,0 9,8 14,5 17,4 12 6 16 9 SSW 1023,3 40 0 0,0
15.09.2019 06:00:00 8,2 5,8 4,4 10,0 14,8 17,4 5 3 15 8 S 1024,0 10 0 0,0
15.09.2019 05:00:00 7,9 5,9 4,3 10,3 15,1 17,4 8 4 11 6 S 1024,9 10 0 0,0
15.09.2019 04:00:00 8,5 5,9 4,9 10,7 15,5 17,4 3 2 8 4 S 1025,8 40 0 0,0
15.09.2019 03:00:00 8,4 5,8 4,6 11,1 15,9 17,4 4 2 16 9 S 1026,6 10 0 0,0
15.09.2019 02:00:00 8,7 5,9 5,6 11,5 16,4 17,5 9 5 11 6 S 1027,3 10 0 0,0
15.09.2019 01:00:00 8,8 5,8 4,9 12,2 16,8 17,5 4 2 9 5 S 1028,2 10 0 0,0
15.09.2019 00:00:00 9,9 5,3 7,0 12,9 17,4 17,5 2 1 9 5 - 1029,3 10 0 0,0
14.09.2019 23:00:00 11,4 5,7 6,2 13,9 17,9 17,5 2 1 12 7 S 1029,3 55 0 0,0
14.09.2019 22:00:00 12,2 5,9 7,7 14,9 18,5 17,5 8 4 11 6 S 1029,9 10 0 0,0
14.09.2019 21:00:00 14,4 5,6 11,5 16,3 19,0 17,5 5 3 8 4 W 1030,7 10 0 0,0
14.09.2019 20:00:00 16,0 4,4 10,9 18,1 19,4 17,5 5 3 11 6 W 1030,4 10 4 0,0
14.09.2019 19:00:00 17,5 3,7 16,6 20,3 19,7 17,5 9 5 14 8 W 1030,5 60 58 0,0
14.09.2019 18:00:00 18,2 2,8 18,2 22,7 19,7 17,5 8 5 18 10 W 1030,8 60 60 0,0
14.09.2019 17:00:00 18,6 4,4 20,6 24,6 19,3 17,5 13 7 26 14 WNW 1031,9 10 60 0,0
14.09.2019 16:00:00 18,3 3,7 22,3 25,7 18,7 17,5 9 5 21 11 WNW 1032,1 55 60 0,0
14.09.2019 15:00:00 19,1 5,7 23,3 25,8 17,9 17,5 9 5 21 11 SW 1032,9 10 60 0,0
14.09.2019 14:00:00 18,0 5,2 23,1 24,6 17,1 17,5 5 3 27 14 - 1033,5 10 58 0,0
14.09.2019 13:00:00 17,0 4,6 22,5 23,7 16,2 17,5 11 6 19 10 WNW 1034,3 10 56 0,0
14.09.2019 12:00:00 16,8 6,8 21,3 21,5 15,4 17,5 9 5 18 10 NW 1034,9 10 54 0,0
14.09.2019 11:00:00 15,3 8,1 16,5 18,6 14,7 17,6 9 5 18 10 NNW 1035,0 10 54 0,0
14.09.2019 10:00:00 14,3 8,4 17,3 16,0 14,3 17,6 8 4 13 7 N 1034,8 35 60 0,0
14.09.2019 09:00:00 11,9 8,2 13,4 12,9 14,3 17,6 8 4 11 6 W 1034,9 35 59 0,0
14.09.2019 08:00:00 10,0 7,7 8,8 10,7 14,5 17,6 5 3 9 5 W 1034,7 10 41 0,0
14.09.2019 07:00:00 9,5 7,2 7,7 10,2 14,8 17,6 8 4 14 8 WNW 1034,6 10 0 0,0
14.09.2019 06:00:00 9,5 7,5 7,7 10,5 15,1 17,6 9 5 15 8 WNW 1034,2 10 0 0,0
14.09.2019 05:00:00 10,4 8,1 8,4 10,8 15,4 17,6 11 6 15 8 WNW 1033,9 10 0 0,0
14.09.2019 04:00:00 9,5 7,1 6,3 11,2 15,8 17,6 8 4 9 5 W 1033,8 10 0 0,0
14.09.2019 03:00:00 11,0 7,6 6,4 12,0 16,1 17,6 5 3 9 5 W 1034,0 10 0 0,0
14.09.2019 02:00:00 11,4 7,8 8,4 12,7 16,5 17,6 9 5 9 5 W 1034,2 10 0 0,0
14.09.2019 01:00:00 11,8 7,4 9,6 13,3 16,8 17,6 9 5 11 6 WSW 1033,7 50 0 0,0
14.09.2019 00:00:00 14,2 7,0 12,2 14,0 17,2 17,6 5 3 16 9 NW 1033,2 10 0 0,0
13.09.2019 23:00:00 14,6 7,1 12,8 14,7 17,5 17,6 8 4 12 6 NNW 1032,7 10 0 0,0
13.09.2019 22:00:00 15,7 6,8 14,4 15,4 17,9 17,6 8 4 16 9 NNW 1032,3 55 0 0,0
13.09.2019 21:00:00 16,3 7,1 15,1 16,2 18,2 17,6 13 7 29 16 N 1031,9 60 0 0,0
13.09.2019 20:00:00 17,0 8,5 15,4 17,2 18,5 17,6 18 10 26 14 N 1031,1 10 0 0,0
13.09.2019 19:00:00 18,4 8,1 17,5 18,6 18,7 17,6 16 9 39 21 NW 1030,4 10 26 0,0
13.09.2019 18:00:00 19,5 8,1 19,1 20,5 18,7 17,6 26 14 45 24 NNW 1029,7 10 39 0,0
13.09.2019 17:00:00 19,9 10,8 20,5 21,2 18,6 17,6 21 11 35 19 NW 1029,3 10 8 0,0
13.09.2019 16:00:00 19,7 13,0 20,7 22,0 18,3 17,6 16 8 39 21 NNW 1029,0 60 17 0,0
13.09.2019 15:00:00 18,1 12,6 18,6 21,0 18,1 17,6 29 16 57 31 NNW 1028,8 10 3 0,0
13.09.2019 14:00:00 23,0 14,4 25,1 24,3 17,3 17,6 28 15 46 25 W 1027,0 10 46 0,0
13.09.2019 13:00:00 21,6 14,9 23,5 20,9 16,8 17,6 32 17 45 24 W 1026,9 50 12 0,0
13.09.2019 12:00:00 20,5 14,6 22,0 18,6 16,5 17,6 28 15 41 22 W 1026,9 10 0 0,0
13.09.2019 11:00:00 19,7 14,1 19,8 17,5 16,3 17,6 22 12 37 20 W 1027,0 50 0 0,0
13.09.2019 10:00:00 19,2 13,4 19,9 17,2 16,1 17,6 23 13 35 19 WSW 1026,8 50 3 0,0
13.09.2019 09:00:00 18,0 13,0 18,0 15,8 16,0 17,6 22 12 28 15 WSW 1026,7 10 0 0,0
13.09.2019 08:00:00 17,1 12,9 16,6 15,0 16,0 17,6 18 10 24 13 SW 1026,5 10 0 0,0
13.09.2019 07:00:00 16,5 12,8 15,8 14,7 16,0 17,6 15 8 21 11 SW 1026,5 10 0 0,0
13.09.2019 06:00:00 16,2 12,6 15,5 14,5 16,1 17,6 16 9 21 11 SW 1026,4 10 0 0,0
13.09.2019 05:00:00 15,4 12,3 13,9 13,9 16,2 17,6 16 9 20 11 SW 1026,4 10 0 0,0
13.09.2019 04:00:00 15,2 12,4 13,4 14,0 16,4 17,7 13 7 21 11 SW 1026,5 40 0 0,0
13.09.2019 03:00:00 15,0 12,7 12,8 14,1 16,6 17,7 11 6 16 8 SW 1026,7 10 0 0,0
13.09.2019 02:00:00 15,0 12,7 12,4 14,4 16,9 17,7 11 6 13 7 SW 1026,8 45 0 0,0
13.09.2019 01:00:00 15,4 12,8 12,3 14,9 17,2 17,7 8 4 11 6 SW 1026,9 10 0 0,0
13.09.2019 00:00:00 16,0 13,1 13,7 15,6 17,4 17,7 8 4 13 7 W 1027,0 10 0 0,0
12.09.2019 23:00:00 17,8 13,4 16,1 16,1 17,6 17,7 9 5 16 9 SW 1027,1 10 0 0,0
12.09.2019 22:00:00 18,1 13,8 16,2 16,4 17,9 17,7 15 8 18 10 SSW 1027,0 10 0 0,0
12.09.2019 21:00:00 18,3 13,7 15,8 17,0 18,2 17,7 15 8 20 11 SSW 1027,1 10 0 0,0
12.09.2019 20:00:00 19,4 13,6 16,5 18,1 18,4 17,7 12 6 18 10 S 1026,9 55 0 0,0
12.09.2019 19:00:00 21,0 13,4 19,7 19,3 18,4 17,7 16 9 28 15 SW 1026,6 10 25 0,0
12.09.2019 18:00:00 21,7 13,2 21,2 21,1 18,2 17,7 20 11 29 16 SW 1026,6 60 60 0,0
12.09.2019 17:00:00 22,3 13,3 23,7 22,0 17,8 17,7 18 10 33 18 WSW 1026,9 60 59 0,0
12.09.2019 16:00:00 22,0 13,5 24,6 21,1 17,4 17,8 19 10 28 15 WSW 1027,0 60 12 0,0
12.09.2019 15:00:00 20,8 13,6 22,1 20,5 17,0 17,8 18 10 28 15 SW 1027,4 10 5 0,0
12.09.2019 14:00:00 20,5 13,6 22,8 20,6 16,6 17,8 19 11 28 15 WSW 1027,6 55 21 0,0
12.09.2019 13:00:00 18,8 14,0 20,0 17,9 16,3 17,8 14 7 24 13 SW 1027,7 50 0 0,0
12.09.2019 12:00:00 18,0 13,7 18,5 17,9 16,1 17,8 16 9 24 13 SW 1027,5 10 0 0,0
12.09.2019 11:00:00 17,1 13,7 16,9 16,7 15,9 17,8 16 9 22 12 W 1027,4 10 0 0,0
12.09.2019 10:00:00 16,6 14,1 16,8 16,4 15,8 17,8 15 8 21 11 SW 1026,7 10 0 0,0
12.09.2019 09:00:00 15,5 13,8 15,3 15,7 15,6 17,8 13 7 20 11 SW 1026,0 10 0 0,0
12.09.2019 08:00:00 15,0 13,8 14,8 14,9 15,6 17,8 11 6 18 10 SW 1025,7 10 0 0,0
12.09.2019 07:00:00 14,7 13,8 14,2 14,6 15,6 17,8 15 8 18 10 WSW 1025,2 10 0 0,0
12.09.2019 06:00:00 14,6 13,9 14,1 14,6 15,6 17,8 13 7 18 10 WSW 1024,4 10 0 0,0
12.09.2019 05:00:00 14,5 13,9 14,1 14,4 15,6 17,9 13 7 18 10 WSW 1024,2 10 0 0,2
12.09.2019 04:00:00 14,6 13,3 13,9 14,2 15,7 17,9 11 6 26 14 W 1024,0 10 0 0,1
12.09.2019 03:00:00 15,7 11,4 14,8 13,8 15,8 17,9 22 12 31 17 W 1023,6 30 0 0,0
12.09.2019 02:00:00 15,3 9,0 14,1 13,6 15,9 17,9 11 6 15 8 WSW 1022,9 50 0 0,0
12.09.2019 01:00:00 15,2 8,5 13,8 13,3 16,2 17,9 14 7 22 12 WSW 1022,5 50 0 0,0
12.09.2019 00:00:00 15,5 7,9 13,2 13,5 16,5 17,9 18 10 25 13 SSW 1021,9 10 0 0,0
11.09.2019 23:00:00 15,5 8,1 12,8 13,8 16,9 17,9 16 9 21 11 SSW 1022,1 10 0 0,0
11.09.2019 22:00:00 15,8 7,9 12,7 14,5 17,3 18,0 13 7 18 10 S 1022,0 50 0 0,0
11.09.2019 21:00:00 16,4 8,2 12,7 15,5 17,7 18,0 14 8 18 10 S 1021,7 60 0 0,0
11.09.2019 20:00:00 18,5 8,2 14,5 16,8 18,0 18,0 11 6 22 12 S 1021,6 10 2 0,0
11.09.2019 19:00:00 20,6 7,2 18,9 18,4 18,2 18,0 15 8 24 13 SSW 1021,4 10 17 0,0
11.09.2019 18:00:00 21,0 6,6 19,1 20,1 18,2 18,0 21 11 33 18 SW 1021,4 10 39 0,0
11.09.2019 17:00:00 22,2 6,0 22,9 21,9 17,8 18,1 22 12 39 21 SSW 1021,3 10 60 0,0
11.09.2019 16:00:00 22,4 5,8 24,1 22,2 17,4 18,1 23 12 37 20 SW 1021,5 55 60 0,0
11.09.2019 15:00:00 22,4 6,1 25,2 21,8 16,8 18,1 21 11 36 20 SW 1021,9 55 60 0,0
11.09.2019 14:00:00 21,8 5,7 24,6 21,3 16,2 18,1 24 13 37 20 SW 1022,1 55 60 0,0
11.09.2019 13:00:00 21,0 5,7 24,2 21,0 15,5 18,1 18 10 29 16 SW 1022,6 10 60 0,0
11.09.2019 12:00:00 19,6 6,7 24,1 20,5 14,6 18,1 15 8 24 13 SSW 1023,0 10 60 0,0
11.09.2019 11:00:00 18,1 7,0 21,9 18,3 13,9 18,2 11 6 16 9 SSW 1023,2 10 60 0,0
11.09.2019 10:00:00 14,8 7,2 17,9 15,5 13,4 18,2 9 5 13 7 S 1023,2 50 60 0,0
11.09.2019 09:00:00 12,6 7,5 14,0 12,4 13,2 18,2 10 5 15 8 SSW 1022,8 50 60 0,0
11.09.2019 08:00:00 10,2 6,5 8,7 9,6 13,3 18,2 8 4 11 6 SW 1022,7 50 48 0,0
11.09.2019 07:00:00 8,2 5,8 4,6 8,9 13,5 18,2 9 5 11 6 S 1022,2 50 0 0,0
11.09.2019 06:00:00 8,1 5,9 4,7 9,2 13,8 18,2 7 4 8 4 S 1021,8 55 0 0,0
11.09.2019 05:00:00 8,4 6,1 4,5 9,5 14,1 18,2 4 2 9 5 WSW 1021,4 10 0 0,0
11.09.2019 04:00:00 9,9 6,3 7,3 9,9 14,4 18,3 9 5 11 6 SW 1021,5 60 0 0,0
11.09.2019 03:00:00 9,8 6,3 6,2 10,3 14,7 18,3 8 4 13 7 WSW 1021,2 60 0 0,0
11.09.2019 02:00:00 10,6 6,5 7,6 10,6 15,0 18,3 8 4 16 9 SW 1020,7 10 0 0,0
11.09.2019 01:00:00 11,2 6,4 7,9 11,0 15,3 18,3 9 5 13 7 SW 1020,2 10 0 0,0
11.09.2019 00:00:00 12,3 6,7 9,6 11,5 15,7 18,3 11 6 18 10 SW 1020,0 10 0 0,0
10.09.2019 23:00:00 13,7 6,4 11,3 12,0 16,0 18,3 15 8 19 10 SW 1019,5 10 0 0,0
10.09.2019 22:00:00 14,4 6,6 11,5 12,6 16,4 18,4 15 8 16 9 SW 1019,0 10 0 0,0
10.09.2019 21:00:00 13,8 6,5 10,6 13,3 16,8 18,4 11 6 16 9 SW 1018,7 10 0 0,0
10.09.2019 20:00:00 15,9 6,7 13,3 14,2 17,2 18,4 14 8 21 11 SW 1017,9 55 14 0,0
10.09.2019 19:00:00 18,0 5,9 16,6 15,4 17,5 18,4 16 9 35 19 WSW 1017,4 10 57 0,0
10.09.2019 18:00:00 18,9 5,6 17,8 17,0 17,6 18,4 28 15 42 23 WSW 1016,9 10 60 0,0
10.09.2019 17:00:00 19,2 5,8 19,5 18,3 17,6 18,4 31 17 52 28 WSW 1016,4 10 59 0,0
10.09.2019 16:00:00 19,6 6,4 20,4 18,7 17,5 18,5 31 17 49 26 W 1016,0 10 42 0,0
10.09.2019 15:00:00 19,4 5,3 20,9 19,8 17,2 18,5 37 20 52 28 W 1015,6 10 58 0,0
10.09.2019 14:00:00 19,0 7,8 21,1 19,2 16,8 18,5 31 17 51 27 W 1015,4 10 55 0,0
10.09.2019 13:00:00 18,9 7,8 21,2 19,4 16,4 18,5 35 19 50 27 W 1014,8 10 58 0,0
10.09.2019 12:00:00 17,8 9,1 19,5 18,6 16,0 18,5 37 20 54 29 W 1014,5 10 60 0,0
10.09.2019 11:00:00 16,7 9,5 18,3 17,8 15,6 18,5 37 20 54 29 W 1014,0 10 58 0,0
10.09.2019 10:00:00 15,3 11,4 16,6 16,0 15,4 18,6 29 16 48 26 W 1013,5 10 42 0,0
10.09.2019 09:00:00 13,9 11,6 14,1 14,5 15,3 18,6 29 16 41 22 W 1012,8 10 8 0,0
10.09.2019 08:00:00 13,0 11,4 12,7 13,5 15,3 18,6 27 14 36 20 WSW 1012,4 25 0 0,0
10.09.2019 07:00:00 13,1 11,7 12,6 13,5 15,4 18,6 24 13 35 19 W 1012,0 10 0 0,0
10.09.2019 06:00:00 13,2 11,8 12,8 13,5 15,4 18,6 21 11 34 18 W 1011,6 10 0 0,0
10.09.2019 05:00:00 13,1 11,7 12,7 13,5 15,5 18,6 24 13 35 19 W 1011,0 10 0 0,0
10.09.2019 04:00:00 12,8 11,7 12,4 13,5 15,6 18,6 21 11 31 17 W 1011,0 20 0 0,0
10.09.2019 03:00:00 12,6 11,7 12,2 13,4 15,7 18,6 19 11 34 18 W 1010,8 12 0 0,0
10.09.2019 02:00:00 12,5 11,2 12,0 13,4 15,9 18,7 26 14 38 21 W 1010,8 10 0 0,2
10.09.2019 01:00:00 12,2 11,3 11,9 13,6 16,0 18,7 28 15 40 22 WNW 1010,8 4,2 0 0,8
10.09.2019 00:00:00 12,6 11,6 12,3 13,8 16,2 18,7 26 14 42 23 WNW 1010,8 8 0 0,0
09.09.2019 23:00:00 12,9 11,8 12,7 14,1 16,4 18,7 26 14 39 21 WNW 1010,1 10 0 0,0
09.09.2019 22:00:00 13,1 12,0 12,9 14,3 16,5 18,7 26 14 38 20 W 1010,0 10 0 0,0
09.09.2019 21:00:00 13,3 12,3 13,2 14,6 16,7 18,7 24 13 34 18 WNW 1010,0 10 0 0,1
09.09.2019 20:00:00 13,5 12,8 13,3 14,9 16,9 18,7 22 12 35 19 WNW 1009,7 7 0 4,6
09.09.2019 19:00:00 14,3 13,6 14,1 15,5 17,0 18,7 14 8 18 10 W 1009,2 8 0 2,2
09.09.2019 18:00:00 14,3 13,1 13,9 15,7 17,1 18,7 9 5 18 10 NNW 1009,1 10 0 0,6
09.09.2019 17:00:00 14,4 13,2 14,1 15,9 17,1 18,7 15 8 23 12 NNW 1008,8 10 0 0,2
09.09.2019 16:00:00 14,1 13,2 14,0 15,9 17,1 18,7 13 7 22 12 NNW 1009,2 8 0 0,0
09.09.2019 15:00:00 14,0 13,0 13,8 16,1 17,2 18,7 15 8 29 16 N 1009,5 10 0 1,8
09.09.2019 14:00:00 14,1 13,2 14,0 15,8 17,2 18,7 15 8 29 16 N 1009,8 8 0 0,9
09.09.2019 13:00:00 14,0 13,0 14,0 15,7 17,3 18,8 18 10 29 16 N 1009,4 4,8 0 3,7
09.09.2019 12:00:00 14,0 12,9 13,7 15,6 17,4 18,8 9 5 28 15 N 1010,4 8 0 2,3
09.09.2019 11:00:00 13,8 12,7 13,7 15,5 17,5 18,8 18 10 31 17 NNE 1010,7 15 0 2,0
09.09.2019 10:00:00 13,7 12,7 13,6 15,5 17,6 18,8 18 10 24 13 N 1011,3 15 0 1,3

tt = temperature
td = dewpoint
tt 5cm = temperature 5cm
tt -5cm = temperature -5cm
tt -20cm = temperature -20cm
tt -100cm = temperature -100cm
ff = wind speed
fx = gusts
dd = wind direction
ppp = reduced air pressure
vv = visibility
sd = sunshine duration
rr = precipitation

Next stations